Location: Recife
(8.0585°S, 34.8848°W)
Time: 20:01:00
(UTC-03:00)

A-11 Canister half - Pass Details

Date: 14 April 2026
Orbit: 1523 x 1684 km, 47.3° (Epoch: 16 May)

Event Time Altitude Azimuth Distance (km) Brightness Sun altitude
Rises 21:25:47 0° 228° (SW) 4,756 11.8 -61.8°
Enters shadow 21:27:55 - 229° (SW) 4,083 11.4 -62.3°
Reaches altitude 10° 21:28:52 10° 231° (SW) 3,790 - -62.6°
Maximum altitude 21:38:21 62° 309° (NW) 1,788 - -64.9°
Drops below altitude 10° 21:48:09 10° 28° (NNE) 3,898 - -67.3°
Sets 21:51:24 0° 31° (NNE) 4,898 - -68.1°
